period_start,C,m1,H,J0,J1,J2,J3,J4,J5,JA,JB,JC,JD,JJ,JK,JN,#
2018-07-02 00:02:17,0.01,1.94,0.00,26.52,29.95,32.46,13.77,49.34,1015.14,2014.98,2691.10,2554.00,2910.00,600.16,588.35,49.28,0000 0000 0000 0000 000000
2018-07-02 00:07:19,0.00,1.94,0.00,26.52,29.95,32.45,13.75,49.24,1015.15,2014.98,2691.00,2554.00,2910.00,600.03,588.20,49.33,0000 0000 0000 0000 000000
2018-07-02 00:12:20,0.00,1.94,0.00,26.54,29.95,32.45,13.79,49.21,1015.13,2014.99,2690.99,2553.99,2910.00,600.12,588.26,49.38,0000 0000 0000 0000 000000
2018-07-02 00:17:21,0.00,1.94,0.00,26.58,29.96,32.44,13.72,49.24,1014.73,2014.99,2690.89,2553.98,2909.97,599.95,587.66,49.43,0000 0000 0000 0000 000000
2018-07-02 00:22:22,0.02,1.94,0.00,26.60,29.97,32.46,13.77,49.30,1014.68,2014.99,2690.52,2553.88,2909.77,600.12,587.89,49.48,0000 0000 0000 0000 000000
2018-07-02 00:27:23,0.04,1.94,0.00,26.60,29.97,32.45,13.75,49.26,1014.67,2014.98,2690.06,2553.37,2909.16,599.94,587.70,49.53,0000 0000 0000 0000 000000
2018-07-02 00:32:25,0.00,1.94,0.00,26.61,29.97,32.43,13.65,49.13,1014.66,2014.98,2689.94,2553.03,2909.01,599.92,587.63,49.58,0000 0000 0000 0000 000000
2018-07-02 00:37:26,0.02,1.94,0.00,26.62,29.97,32.42,13.82,49.28,1014.66,2014.98,2689.31,2552.99,2908.95,600.28,588.04,49.63,0000 0000 0000 0000 000000
2018-07-02 00:42:27,0.00,1.94,0.00,26.65,29.98,32.42,13.70,49.11,1014.67,2014.99,2689.01,2552.96,2908.71,599.79,587.46,49.68,0000 0000 0000 0000 000000
2018-07-02 00:47:29,0.03,1.95,0.00,26.68,30.00,32.42,13.81,49.31,1014.66,2014.96,2688.98,2552.55,2908.10,600.02,587.56,49.73,0000 0000 0000 0000 000000
2018-07-02 00:52:30,0.00,1.95,0.00,26.71,30.00,32.43,13.66,49.05,1014.66,2014.98,2688.96,2552.19,2908.01,599.87,587.43,49.78,0000 0000 0000 0000 000000
2018-07-02 00:57:31,0.01,1.95,0.00,26.76,30.02,32.44,13.72,49.04,1014.50,2014.96,2688.60,2552.04,2908.00,600.07,587.46,49.84,0000 0000 0000 0000 000000
2018-07-02 01:02:33,0.00,1.95,0.00,26.79,30.03,32.45,13.68,49.11,1014.22,2014.90,2688.05,2552.00,2907.96,599.95,587.07,49.89,0000 0000 0000 0000 000000
2018-07-02 01:07:34,0.00,1.95,0.00,26.84,30.05,32.46,13.71,49.17,1014.18,2014.85,2688.00,2552.00,2907.70,600.03,587.14,49.94,0000 0000 0000 0000 000000
2018-07-02 01:12:35,0.00,1.95,0.00,26.88,30.07,32.46,13.72,49.12,1014.16,2014.45,2687.62,2551.50,2906.98,600.13,587.01,49.99,0000 0000 0000 0000 000000
2018-07-02 01:17:36,0.04,1.95,0.00,26.92,30.09,32.49,13.70,49.14,1014.16,2014.27,2686.98,2550.63,2906.09,600.36,587.05,50.04,0000 0000 0000 0000 000000
2018-07-02 01:22:37,0.01,1.95,0.00,26.96,30.11,32.51,13.72,49.16,1014.08,2014.07,2686.34,2550.03,2905.79,600.24,586.90,50.09,0000 0000 0000 0000 000000
2018-07-02 01:27:38,0.06,1.95,0.00,26.99,30.13,32.53,13.69,49.17,1013.77,2014.01,2685.79,2549.51,2904.82,599.92,586.39,50.14,0000 0000 0000 0000 000000
2018-07-02 01:32:40,0.02,1.96,0.00,27.03,30.15,32.56,13.68,49.39,1013.71,2014.00,2685.05,2548.99,2904.02,599.70,585.97,50.19,0000 0000 0000 0000 000000
2018-07-02 01:37:41,0.03,1.96,0.00,27.06,30.17,32.58,13.67,49.28,1013.69,2014.00,2684.82,2548.46,2903.86,600.20,586.41,50.24,0000 0000 0000 0000 000000
2018-07-02 01:42:42,0.03,1.96,0.00,27.10,30.20,32.61,13.67,49.29,1013.66,2014.00,2684.06,2548.00,2903.07,600.20,586.35,50.29,0000 0000 0000 0000 000000
2018-07-02 01:47:43,0.04,1.96,0.00,27.14,30.22,32.63,13.65,49.23,1013.63,2014.00,2683.77,2547.39,2902.41,599.77,585.87,50.34,0000 0000 0000 0000 000000
2018-07-02 01:52:44,0.02,1.96,0.00,27.18,30.25,32.66,13.67,49.12,1013.44,2013.98,2683.08,2547.01,2902.01,599.87,585.86,50.39,0000 0000 0000 0000 000000
2018-07-02 01:57:45,-0.00,1.96,0.00,27.21,30.27,32.69,13.67,49.24,1013.24,2013.83,2682.88,2546.83,2901.68,600.01,585.70,50.44,0000 0000 0000 0000 000000
2018-07-02 02:02:46,0.03,1.96,0.00,27.26,30.30,32.72,13.69,49.33,1013.20,2013.55,2682.22,2546.17,2901.05,599.80,585.60,50.49,0000 0000 0000 0000 000000
2018-07-02 02:07:47,0.03,1.97,0.00,27.29,30.33,32.75,13.69,49.63,1013.12,2013.10,2681.42,2545.25,2900.24,599.97,585.47,50.54,0000 0000 0000 0000 000000
2018-07-02 02:12:49,0.02,1.97,0.00,27.33,30.36,32.78,13.69,49.56,1012.84,2013.03,2680.85,2544.77,2899.50,600.19,585.30,50.59,0000 0000 0000 0000 000000
2018-07-02 02:17:50,0.14,1.97,0.00,27.37,30.39,32.80,13.62,49.45,1012.91,2013.01,2679.71,2542.91,2897.79,599.59,584.90,50.64,0000 0000 0000 0000 000000
2018-07-02 02:22:51,0.08,1.98,0.00,27.42,30.42,32.84,13.73,49.28,1013.06,2013.00,2678.42,2541.82,2896.35,600.85,586.04,50.69,0000 0000 0000 0000 000000
2018-07-02 02:27:53,0.03,1.98,0.00,27.46,30.45,32.87,13.68,49.11,1013.19,2013.00,2677.99,2541.04,2895.75,599.77,585.00,50.74,0000 0000 0000 0000 000000
2018-07-02 02:32:54,0.02,1.98,0.00,27.48,30.48,32.90,13.59,49.07,1013.18,2012.98,2677.37,2540.96,2895.06,599.85,585.01,50.79,0000 0000 0000 0000 000000
2018-07-02 02:37:55,0.02,1.98,0.00,27.51,30.51,32.93,13.67,49.17,1012.92,2012.87,2677.01,2540.29,2894.75,599.84,584.77,50.84,0000 0000 0000 0000 000000
2018-07-02 02:42:56,-0.01,1.98,0.00,27.54,30.54,32.96,13.63,49.08,1012.73,2012.55,2676.43,2540.00,2894.09,599.60,584.42,50.89,0000 0000 0000 0000 000000
2018-07-02 02:47:57,-0.02,1.98,0.00,27.58,30.57,33.00,13.54,49.03,1012.71,2012.17,2676.00,2539.95,2893.99,599.70,584.34,50.95,0000 0000 0000 0000 000000
2018-07-02 02:52:59,0.05,1.98,0.00,27.63,30.61,33.03,13.60,49.07,1012.71,2012.01,2675.60,2539.20,2893.26,599.78,584.43,51.00,0000 0000 0000 0000 000000
2018-07-02 02:58:00,0.00,1.98,0.00,27.67,30.64,33.06,13.59,49.03,1012.56,2012.00,2675.02,2539.00,2893.00,599.95,584.38,51.05,0000 0000 0000 0000 000000
2018-07-02 03:03:02,0.01,1.98,0.00,27.71,30.67,33.09,13.63,49.17,1012.37,2012.00,2674.92,2538.85,2892.79,600.14,584.38,51.10,0000 0000 0000 0000 000000
2018-07-02 03:08:03,0.05,1.99,0.00,27.76,30.71,33.12,13.63,49.02,1012.29,2011.99,2674.09,2538.06,2892.03,600.04,584.15,51.15,0000 0000 0000 0000 000000
2018-07-02 03:13:04,0.01,1.99,0.00,27.80,30.74,33.16,13.67,48.91,1012.25,2011.95,2673.85,2537.96,2891.81,600.17,584.14,51.20,0000 0000 0000 0000 000000
2018-07-02 03:18:05,0.04,1.99,0.00,27.85,30.78,33.19,13.60,49.12,1012.22,2011.87,2673.12,2537.47,2891.08,600.12,584.01,51.25,0000 0000 0000 0000 000000
2018-07-02 03:23:06,-0.05,1.99,0.00,27.90,30.82,33.23,13.56,49.10,1012.22,2011.28,2672.96,2537.02,2890.96,599.99,583.90,51.30,0000 0000 0000 0000 000000
2018-07-02 03:28:08,0.03,1.99,0.00,27.94,30.86,33.26,13.60,48.96,1012.14,2011.05,2672.16,2536.87,2890.15,599.86,583.55,51.35,0000 0000 0000 0000 000000
2018-07-02 03:33:09,0.03,1.99,0.00,27.98,30.89,33.30,13.56,48.86,1011.82,2011.01,2671.83,2536.14,2889.96,599.53,582.98,51.40,0000 0000 0000 0000 000000
2018-07-02 03:38:10,0.02,1.99,0.00,28.02,30.93,33.34,13.59,48.92,1011.75,2011.00,2671.14,2536.00,2889.34,600.09,583.38,51.45,0000 0000 0000 0000 000000
2018-07-02 03:43:11,0.01,1.99,0.00,28.06,30.97,33.37,13.62,48.80,1011.73,2010.96,2670.97,2535.77,2889.00,599.71,582.85,51.50,0000 0000 0000 0000 000000
2018-07-02 03:48:13,0.00,1.99,0.00,28.10,31.01,33.41,13.66,49.08,1011.73,2010.71,2670.39,2535.09,2888.70,600.24,583.43,51.55,0000 0000 0000 0000 000000
2018-07-02 03:53:14,-0.03,1.99,0.00,28.14,31.05,33.45,13.63,48.92,1011.72,2010.16,2670.00,2534.99,2888.04,599.88,582.89,51.60,0000 0000 0000 0000 000000
2018-07-02 03:58:15,0.03,1.99,0.00,28.18,31.09,33.49,13.61,48.66,1011.48,2010.03,2669.45,2534.70,2887.97,599.95,582.80,51.65,0000 0000 0000 0000 000000
2018-07-02 04:03:16,0.03,2.00,0.00,28.22,31.13,33.53,13.56,48.60,1011.27,2010.00,2669.01,2534.06,2887.30,599.90,582.57,51.70,0000 0000 0000 0000 000000
2018-07-02 04:08:18,0.01,2.00,0.00,28.26,31.17,33.57,13.60,48.85,1011.25,2010.00,2668.50,2533.97,2886.98,600.02,582.56,51.75,0000 0000 0000 0000 000000
2018-07-02 04:13:19,0.04,2.00,0.00,28.30,31.21,33.60,13.56,48.93,1010.98,2009.94,2668.00,2533.38,2886.40,599.95,582.27,51.80,0000 0000 0000 0000 000000
2018-07-02 04:18:20,-0.03,2.00,0.00,28.34,31.25,33.64,13.62,49.23,1010.78,2009.48,2667.56,2533.01,2886.01,600.12,582.14,51.85,0000 0000 0000 0000 000000
2018-07-02 04:23:22,0.01,2.00,0.00,28.37,31.29,33.68,13.59,49.23,1010.76,2009.08,2667.05,2532.78,2885.56,599.75,581.72,51.91,0000 0000 0000 0000 000000
2018-07-02 04:28:23,0.04,2.00,0.00,28.41,31.33,33.72,13.57,49.08,1010.56,2009.00,2666.43,2532.06,2885.01,600.00,581.85,51.96,0000 0000 0000 0000 000000
2018-07-02 04:33:24,0.01,2.00,0.00,28.45,31.37,33.76,13.57,49.11,1010.28,2009.00,2666.01,2532.00,2884.74,600.15,581.64,52.01,0000 0000 0000 0000 000000
2018-07-02 04:38:25,0.04,2.00,0.00,28.49,31.40,33.80,13.55,49.12,1010.25,2008.95,2665.63,2531.56,2884.04,600.07,581.60,52.06,0000 0000 0000 0000 000000
2018-07-02 04:43:27,-0.04,2.00,0.00,28.52,31.44,33.84,13.59,49.32,1009.94,2008.50,2665.02,2531.03,2883.83,599.93,581.25,52.11,0000 0000 0000 0000 000000
2018-07-02 04:48:28,-0.00,2.00,0.00,28.56,31.48,33.87,13.64,49.24,1009.80,2008.07,2664.72,2530.96,2883.11,600.33,581.35,52.16,0000 0000 0000 0000 000000
2018-07-02 04:53:29,0.02,2.00,0.00,28.59,31.52,33.91,13.55,49.02,1009.80,2008.00,2664.03,2530.53,2882.99,599.83,580.94,52.21,0000 0000 0000 0000 000000
2018-07-02 04:58:30,0.02,2.00,0.00,28.62,31.56,33.95,13.54,48.89,1009.78,2008.00,2663.93,2530.03,2882.60,600.11,581.15,52.26,0000 0000 0000 0000 000000
2018-07-02 05:03:31,0.02,2.00,0.00,28.66,31.59,33.99,13.50,48.78,1009.78,2008.00,2663.18,2529.97,2882.03,600.09,580.99,52.31,0000 0000 0000 0000 000000
2018-07-02 05:08:32,0.03,2.01,0.00,28.69,31.63,34.03,13.51,48.85,1009.73,2007.98,2662.84,2529.32,2881.84,599.65,580.50,52.36,0000 0000 0000 0000 000000
2018-07-02 05:13:33,0.02,2.01,0.00,28.74,31.67,34.07,13.51,48.79,1009.46,2007.83,2662.46,2528.88,2881.22,600.08,580.58,52.41,0000 0000 0000 0000 000000
2018-07-02 05:18:35,-0.01,2.01,0.00,28.78,31.71,34.10,13.48,49.09,1009.31,2007.25,2661.72,2528.14,2880.31,599.63,580.11,52.46,0000 0000 0000 0000 000000
2018-07-02 05:23:36,0.00,2.01,0.00,28.82,31.75,34.14,13.60,48.86,1009.30,2007.01,2661.11,2528.00,2880.00,600.10,580.47,52.51,0000 0000 0000 0000 000000
2018-07-02 05:28:37,0.03,2.01,0.00,28.86,31.79,34.18,13.53,48.84,1009.30,2007.00,2660.88,2527.82,2879.54,599.83,580.04,52.56,0000 0000 0000 0000 000000
2018-07-02 05:33:38,0.04,2.01,0.00,28.91,31.83,34.22,13.55,48.92,1009.29,2006.99,2660.14,2527.13,2879.02,599.86,580.09,52.61,0000 0000 0000 0000 000000
2018-07-02 05:38:39,-0.00,2.01,0.00,28.94,31.87,34.25,13.54,48.77,1009.30,2006.92,2659.90,2526.98,2878.99,599.96,580.15,52.66,0000 0000 0000 0000 000000
2018-07-02 05:43:40,0.05,2.01,0.00,28.98,31.91,34.29,13.49,48.87,1009.29,2006.38,2658.69,2525.84,2878.08,599.44,579.59,52.71,0000 0000 0000 0000 000000
2018-07-02 05:48:42,0.00,2.01,0.00,29.02,31.95,34.32,13.54,48.99,1009.29,2006.02,2657.99,2525.01,2877.04,600.33,580.22,52.76,0000 0000 0000 0000 000000
2018-07-02 05:53:43,0.01,2.01,0.00,29.06,31.99,34.37,13.55,48.97,1009.28,2006.01,2657.60,2524.97,2876.96,600.14,579.97,52.81,0000 0000 0000 0000 000000
2018-07-02 05:58:44,0.05,2.02,0.00,29.10,32.03,34.41,13.48,49.14,1009.21,2005.97,2657.00,2524.28,2876.20,599.82,579.50,52.87,0000 0000 0000 0000 000000
2018-07-02 06:03:45,-0.00,2.02,0.00,29.14,32.07,34.45,13.55,48.93,1009.06,2005.84,2656.26,2524.00,2875.93,600.11,579.76,52.92,0000 0000 0000 0000 000000
2018-07-02 06:08:47,-0.02,2.02,0.00,29.18,32.11,34.49,13.54,49.02,1008.85,2005.27,2656.00,2523.59,2875.18,600.11,579.55,52.97,0000 0000 0000 0000 000000
2018-07-02 06:13:48,0.02,2.02,0.00,29.21,32.15,34.52,13.50,48.83,1008.82,2005.02,2655.28,2523.02,2874.83,600.08,579.37,53.02,0000 0000 0000 0000 000000
2018-07-02 06:18:49,0.04,2.02,0.00,29.25,32.19,34.56,13.46,48.92,1008.80,2005.00,2654.69,2522.62,2874.07,599.66,578.82,53.07,0000 0000 0000 0000 000000
2018-07-02 06:23:51,0.03,2.02,0.00,29.30,32.23,34.60,13.55,48.91,1008.80,2005.00,2654.04,2522.04,2873.64,600.14,579.18,53.12,0000 0000 0000 0000 000000
2018-07-02 06:28:52,0.02,2.02,0.00,29.34,32.27,34.65,13.46,48.94,1008.72,2004.93,2653.52,2521.87,2873.02,600.25,579.29,53.17,0000 0000 0000 0000 000000
2018-07-02 06:33:53,-0.01,2.02,0.00,29.39,32.31,34.68,13.52,48.85,1008.51,2004.55,2652.90,2521.08,2872.53,600.16,578.90,53.22,0000 0000 0000 0000 000000
2018-07-02 06:38:54,0.00,2.02,0.00,29.42,32.35,34.72,13.52,48.76,1008.32,2004.14,2652.10,2520.96,2872.01,600.13,578.69,53.27,0000 0000 0000 0000 000000
2018-07-02 06:43:55,0.05,2.02,0.00,29.48,32.39,34.76,13.52,48.88,1008.32,2004.00,2651.77,2520.29,2871.45,599.97,578.61,53.32,0000 0000 0000 0000 000000
2018-07-02 06:48:56,0.04,2.03,0.00,29.53,32.43,34.80,13.60,48.99,1008.32,2004.00,2651.07,2519.79,2870.52,600.72,578.95,53.37,0000 0000 0000 0000 000000
2018-07-02 06:53:58,0.03,2.03,0.00,29.57,32.48,34.85,13.44,48.98,1008.22,2003.94,2650.53,2519.05,2869.95,599.64,577.90,53.42,0000 0000 0000 0000 000000
2018-07-02 06:58:59,0.00,2.03,0.00,29.62,32.52,34.89,13.40,48.77,1007.94,2003.51,2649.74,2518.49,2869.16,599.66,577.64,53.47,0000 0000 0000 0000 000000
2018-07-02 07:04:00,0.00,2.03,0.00,29.67,32.56,34.93,13.53,49.00,1007.85,2003.06,2649.03,2517.99,2868.59,600.55,578.45,53.52,0000 0000 0000 0000 000000
2018-07-02 07:09:02,0.05,2.03,0.00,29.71,32.60,34.97,13.44,48.77,1007.83,2003.01,2648.33,2517.30,2867.89,599.78,577.59,53.57,0000 0000 0000 0000 000000
2018-07-02 07:14:03,0.03,2.03,0.00,29.75,32.64,35.01,13.53,48.96,1007.83,2003.00,2647.78,2516.92,2867.07,600.39,578.19,53.62,0000 0000 0000 0000 000000
2018-07-02 07:19:04,0.06,2.04,0.00,29.78,32.69,35.05,13.51,48.82,1007.67,2002.94,2646.95,2516.11,2866.30,600.50,578.07,53.67,0000 0000 0000 0000 000000
2018-07-02 07:24:05,0.01,2.04,0.00,29.82,32.73,35.10,13.45,48.84,1007.38,2002.64,2646.12,2515.70,2865.68,600.03,577.30,53.72,0000 0000 0000 0000 000000
2018-07-02 07:29:06,-0.00,2.04,0.00,29.86,32.77,35.14,13.42,48.87,1007.34,2002.09,2645.29,2514.98,2864.83,599.89,577.12,53.77,0000 0000 0000 0000 000000
2018-07-02 07:34:07,0.05,2.04,0.00,29.90,32.81,35.17,13.50,48.96,1007.33,2002.01,2644.59,2514.25,2864.04,600.14,577.29,53.83,0000 0000 0000 0000 000000
2018-07-02 07:39:08,0.05,2.04,0.00,29.93,32.85,35.21,13.39,48.97,1007.31,2002.00,2643.83,2513.70,2863.27,599.73,576.77,53.88,0000 0000 0000 0000 000000
2018-07-02 07:44:10,0.05,2.04,0.00,29.97,32.89,35.25,13.44,48.92,1007.27,2001.96,2642.96,2512.97,2862.30,600.32,577.26,53.93,0000 0000 0000 0000 000000
2018-07-02 07:49:11,0.05,2.05,0.00,30.01,32.93,35.29,13.48,48.90,1007.10,2001.86,2642.07,2512.13,2861.50,599.87,576.67,53.98,0000 0000 0000 0000 000000
2018-07-02 07:54:12,0.01,2.05,0.00,30.04,32.96,35.33,13.43,48.78,1006.98,2001.38,2641.18,2511.60,2860.74,600.15,576.88,54.03,0000 0000 0000 0000 000000
2018-07-02 07:59:14,0.03,2.05,0.00,30.07,33.00,35.36,13.43,48.89,1007.17,2001.11,2640.22,2510.90,2859.83,600.03,576.77,54.08,0000 0000 0000 0000 000000
2018-07-02 08:04:15,0.06,2.05,0.00,30.11,33.04,35.40,13.43,49.04,1007.10,2001.02,2639.39,2510.06,2858.81,599.60,576.31,54.13,0000 0000 0000 0000 000000
2018-07-02 08:09:16,0.07,2.06,0.00,30.13,33.08,35.45,13.45,48.81,1007.13,2000.99,2638.34,2509.15,2857.73,599.97,576.59,54.18,0000 0000 0000 0000 000000
2018-07-02 08:14:18,0.06,2.06,0.00,30.16,33.11,35.48,13.48,48.89,1007.13,2000.94,2637.38,2508.35,2856.79,600.30,576.81,54.23,0000 0000 0000 0000 000000
2018-07-02 08:19:19,0.05,2.06,0.00,30.19,33.15,35.52,13.45,48.62,1006.96,2000.86,2636.27,2507.68,2855.86,599.91,576.33,54.28,0000 0000 0000 0000 000000
2018-07-02 08:24:21,-0.01,2.06,0.00,30.22,33.19,35.55,13.43,48.55,1007.17,2000.33,2635.48,2506.94,2854.95,600.08,576.52,54.33,0000 0000 0000 0000 000000
2018-07-02 08:29:22,0.05,2.07,0.00,30.25,33.22,35.59,13.36,48.40,1007.25,2000.02,2634.51,2506.11,2854.04,599.77,576.21,54.38,0000 0000 0000 0000 000000
2018-07-02 08:34:23,0.07,2.07,0.00,30.29,33.26,35.63,13.40,48.31,1006.96,2000.00,2633.49,2505.36,2853.08,599.80,576.09,54.43,0000 0000 0000 0000 000000
2018-07-02 08:39:24,0.06,2.07,0.00,30.31,33.30,35.67,13.50,48.45,1006.85,2000.00,2632.52,2504.69,2852.10,600.34,576.47,54.48,0000 0000 0000 0000 000000
2018-07-02 08:44:26,0.07,2.08,0.00,30.35,33.33,35.70,13.42,48.42,1006.85,1999.98,2631.33,2503.77,2851.08,600.08,576.10,54.53,0000 0000 0000 0000 000000
2018-07-02 08:49:27,0.05,2.08,0.00,30.38,33.37,35.73,13.43,48.35,1006.85,1999.80,2630.26,2502.87,2849.95,600.02,575.98,54.58,0000 0000 0000 0000 000000
2018-07-02 08:54:28,0.03,2.08,0.00,30.41,33.40,35.76,13.46,48.52,1006.84,1999.40,2629.01,2501.98,2848.83,600.10,575.98,54.63,0000 0000 0000 0000 000000
2018-07-02 08:59:30,0.07,2.08,0.00,30.46,33.44,35.80,13.40,48.41,1006.56,1999.04,2627.68,2501.05,2847.59,599.83,575.42,54.68,0000 0000 0000 0000 000000
2018-07-02 09:04:31,0.08,2.09,0.00,30.51,33.48,35.83,13.44,48.46,1006.38,1999.02,2626.49,2500.12,2846.52,599.92,575.30,54.74,0000 0000 0000 0000 000000
2018-07-02 09:09:32,0.08,2.09,0.00,30.56,33.51,35.87,13.32,48.52,1006.37,1999.00,2625.06,2499.17,2845.23,599.34,574.66,54.79,0000 0000 0000 0000 000000
2018-07-02 09:14:33,0.09,2.10,0.00,30.61,33.55,35.90,13.38,48.44,1006.36,1998.94,2623.59,2498.07,2843.82,599.95,575.15,54.84,0000 0000 0000 0000 000000
2018-07-02 09:19:34,0.04,2.10,0.00,30.65,33.59,35.95,13.40,48.48,1006.36,1998.61,2622.31,2497.02,2842.48,600.15,575.25,54.89,0000 0000 0000 0000 000000
2018-07-02 09:24:35,0.04,2.10,0.00,30.68,33.63,35.98,13.41,48.53,1006.36,1998.10,2620.98,2496.09,2841.26,599.99,575.04,54.94,0000 0000 0000 0000 000000
2018-07-02 09:29:36,0.08,2.10,0.00,30.72,33.67,36.02,13.38,48.46,1006.12,1998.01,2619.66,2495.15,2840.02,600.34,575.14,54.99,0000 0000 0000 0000 000000
2018-07-02 09:34:38,0.09,2.11,0.00,30.76,33.71,36.05,13.41,48.67,1005.91,1998.00,2618.32,2494.24,2838.76,600.07,574.70,55.04,0000 0000 0000 0000 000000
2018-07-02 09:39:39,0.07,2.11,0.00,30.80,33.75,36.10,13.35,48.42,1005.89,1997.96,2617.01,2493.30,2837.56,600.11,574.69,55.09,0000 0000 0000 0000 000000
2018-07-02 09:44:40,0.07,2.12,0.00,30.84,33.79,36.13,13.44,48.54,1005.87,1997.83,2615.65,2492.35,2836.43,599.69,574.29,55.14,0000 0000 0000 0000 000000
2018-07-02 09:49:41,0.02,2.12,0.00,30.90,33.82,36.17,13.37,48.57,1005.87,1997.42,2614.72,2491.55,2835.34,599.91,574.43,55.19,0000 0000 0000 0000 000000
2018-07-02 09:54:43,0.06,2.12,0.00,30.95,33.86,36.21,13.33,48.49,1005.87,1997.08,2613.45,2490.54,2834.15,599.94,574.26,55.24,0000 0000 0000 0000 000000
2018-07-02 09:59:44,0.08,2.12,0.00,31.01,33.91,36.25,13.27,48.34,1005.85,1997.00,2612.25,2489.60,2832.89,599.77,574.03,55.29,0000 0000 0000 0000 000000
2018-07-02 10:04:45,0.08,2.13,0.00,31.07,33.95,36.28,13.38,48.64,1005.82,1997.00,2610.97,2488.64,2831.69,600.04,574.06,55.34,0000 0000 0000 0000 000000
2018-07-02 10:09:46,0.07,2.13,0.00,31.12,33.99,36.32,13.39,48.67,1005.69,1996.94,2609.72,2487.70,2830.50,600.02,573.81,55.39,0000 0000 0000 0000 000000
2018-07-02 10:14:48,0.03,2.14,0.00,31.17,34.04,36.37,13.41,48.59,1005.46,1996.46,2608.41,2486.59,2829.19,600.13,573.79,55.44,0000 0000 0000 0000 000000
2018-07-02 10:19:49,0.06,2.14,0.00,31.24,34.08,36.42,13.46,48.66,1005.51,1996.11,2607.19,2485.64,2827.98,600.31,573.83,55.49,0000 0000 0000 0000 000000
2018-07-02 10:24:50,0.08,2.14,0.00,31.29,34.13,36.48,13.37,48.64,1005.59,1996.02,2605.94,2484.68,2826.72,600.16,573.55,55.54,0000 0000 0000 0000 000000
2018-07-02 10:29:51,0.10,2.15,0.00,31.34,34.18,36.53,13.39,48.63,1005.45,1996.00,2604.59,2483.54,2825.35,599.79,573.11,55.59,0000 0000 0000 0000 000000
2018-07-02 10:34:52,0.07,2.15,0.00,31.38,34.23,36.60,13.43,48.49,1005.41,1995.78,2603.06,2482.30,2823.78,600.44,573.59,55.64,0000 0000 0000 0000 000000
2018-07-02 10:39:54,0.03,2.15,0.00,31.42,34.28,36.66,13.40,48.61,1005.40,1995.19,2601.61,2481.15,2822.40,599.86,573.03,55.70,0000 0000 0000 0000 000000
2018-07-02 10:44:54,0.09,2.16,0.00,31.42,34.32,36.73,13.40,48.73,1005.39,1995.00,2600.27,2480.02,2820.86,600.06,573.11,55.75,0000 0000 0000 0000 000000
2018-07-02 10:49:56,0.11,2.16,0.00,31.43,34.37,36.78,13.40,48.70,1005.39,1994.98,2598.59,2478.77,2819.31,600.20,573.34,55.80,0000 0000 0000 0000 000000
2018-07-02 10:54:57,0.09,2.17,0.00,31.42,34.41,36.82,13.37,48.80,1005.39,1994.80,2596.88,2477.49,2817.64,599.80,572.95,55.85,0000 0000 0000 0000 000000
2018-07-02 10:59:58,0.04,2.17,0.00,31.44,34.45,36.86,13.37,48.82,1005.39,1994.31,2595.29,2476.33,2816.18,600.06,573.23,55.90,0000 0000 0000 0000 000000
2018-07-02 11:05:00,0.08,2.17,0.00,31.45,34.49,36.89,13.37,48.77,1005.39,1994.03,2593.77,2475.18,2814.78,599.95,573.09,55.95,0000 0000 0000 0000 000000
2018-07-02 11:10:01,0.10,2.18,0.00,31.46,34.52,36.90,13.39,48.62,1005.39,1994.00,2592.13,2473.95,2813.27,600.05,573.24,56.00,0000 0000 0000 0000 000000
2018-07-02 11:15:02,0.10,2.19,0.00,31.50,34.56,36.90,13.36,48.56,1005.39,1993.99,2590.62,2472.83,2811.83,600.08,573.09,56.05,0000 0000 0000 0000 000000
2018-07-02 11:20:03,0.08,2.19,0.00,31.54,34.59,36.93,13.44,48.58,1005.39,1993.95,2589.20,2471.81,2810.51,599.92,572.86,56.10,0000 0000 0000 0000 000000
2018-07-02 11:25:05,0.06,2.19,0.00,31.57,34.62,36.97,13.39,48.47,1005.39,1993.69,2587.77,2470.66,2809.11,599.89,572.82,56.15,0000 0000 0000 0000 000000
2018-07-02 11:30:06,0.04,2.20,0.00,31.59,34.66,37.02,13.39,48.53,1005.38,1993.15,2586.49,2469.59,2807.80,599.99,572.89,56.20,0000 0000 0000 0000 000000
2018-07-02 11:35:07,0.07,2.20,0.00,31.60,34.69,37.08,13.30,48.44,1005.29,1993.05,2585.20,2468.71,2806.58,599.76,572.54,56.25,0000 0000 0000 0000 000000
2018-07-02 11:40:08,0.08,2.20,0.00,31.61,34.71,37.10,13.38,48.46,1005.15,1993.00,2583.93,2467.74,2805.39,600.03,572.75,56.30,0000 0000 0000 0000 000000
2018-07-02 11:45:10,0.08,2.21,0.00,31.64,34.75,37.13,13.34,48.40,1004.92,1993.00,2582.64,2466.84,2804.18,599.90,572.39,56.35,0000 0000 0000 0000 000000
2018-07-02 11:50:11,0.08,2.21,0.00,31.66,34.78,37.14,13.38,48.45,1004.92,1992.98,2581.44,2465.82,2802.99,599.97,572.44,56.40,0000 0000 0000 0000 000000
2018-07-02 11:55:12,0.07,2.22,0.00,31.67,34.80,37.17,13.36,48.63,1004.91,1992.91,2580.12,2464.93,2801.72,599.82,572.23,56.45,0000 0000 0000 0000 000000
2018-07-02 12:00:13,0.05,2.22,0.00,31.70,34.83,37.20,13.40,48.44,1004.91,1992.48,2578.69,2464.00,2800.50,600.02,572.43,56.50,0000 0000 0000 0000 000000
2018-07-02 12:05:14,0.06,2.22,0.00,31.70,34.86,37.22,13.29,48.52,1004.90,1992.07,2577.18,2462.87,2799.15,599.96,572.11,56.55,0000 0000 0000 0000 000000
2018-07-02 12:10:15,0.10,2.23,0.00,31.70,34.88,37.25,13.36,48.54,1004.90,1992.01,2575.59,2461.79,2797.72,599.89,572.24,56.61,0000 0000 0000 0000 000000
2018-07-02 12:15:17,0.09,2.23,0.00,31.70,34.90,37.28,13.37,48.51,1004.90,1992.00,2574.05,2460.82,2796.43,600.26,572.60,56.66,0000 0000 0000 0000 000000
2018-07-02 12:20:18,0.10,2.24,0.00,31.70,34.92,37.29,13.27,48.58,1004.90,1991.99,2572.52,2459.78,2795.08,599.55,571.93,56.71,0000 0000 0000 0000 000000
2018-07-02 12:25:19,0.11,2.24,0.00,31.70,34.95,37.31,13.40,48.59,1004.89,1991.99,2570.78,2458.66,2793.65,599.96,572.31,56.76,0000 0000 0000 0000 000000
2018-07-02 12:30:21,0.12,2.25,0.00,31.70,34.96,37.34,13.40,48.77,1004.82,1991.97,2568.82,2457.52,2792.07,600.25,572.55,56.81,0000 0000 0000 0000 000000
2018-07-02 12:35:22,0.11,2.26,0.00,31.70,34.98,37.34,13.35,48.66,1004.67,1991.80,2566.43,2456.12,2790.19,599.84,572.06,56.86,0000 0000 0000 0000 000000
2018-07-02 12:40:23,0.12,2.26,0.00,31.72,35.00,37.36,13.37,48.64,1004.48,1991.41,2563.64,2454.56,2788.04,600.01,572.09,56.91,0000 0000 0000 0000 000000
2018-07-02 12:45:24,0.15,2.27,0.00,31.72,35.02,37.38,13.41,48.56,1004.42,1991.06,2560.68,2452.84,2785.83,600.24,572.25,56.96,0000 0000 0000 0000 000000
2018-07-02 12:50:25,0.15,2.28,0.00,31.72,35.03,37.39,13.41,48.73,1004.41,1991.05,2558.08,2451.34,2783.76,600.35,572.08,57.01,0000 0000 0000 0000 000000
2018-07-02 12:55:26,0.18,2.28,0.00,31.72,35.05,37.40,13.35,48.69,1004.41,1991.00,2555.11,2449.58,2781.40,599.89,571.89,57.06,0000 0000 0000 0000 000000